SL-16 DEB, 20626

Orbit data source: Space-Track

SL-16 DEB, 20626 is space debris in LEO originally from a launch on Tue, 22 May 1990 UTC launched from the Tyuratam Missile And Space Complex (TTMTR). Debris objects in space refer to the collection of defunct objects orbiting the Earth. Examples of debris include non-operational satellites, rocket bodies, and fragments generated from explosions, collisions, or faulty payload assembly.

Loading next visibility...
Identifier
20626, 1990-046C
Orbit
LEO
Country
Flag of CISCIS
Related business
Manufacturer
Yuzhnoe
Mission
Spacecraft
Bus & Motor
SEP MOTOR COVER, Unknown motor
Mass
~0 kg wet, ~1 kg dry
Launch date (UTC)
1990-05-22 (35 years ago)
Launch vehicle
Unknown
Launch site
Tyuratam Missile And Space Complex (TTMTR)
Object type
Payload
Rocket body
Debris
Shape & HBR
Unknown shape, 0.1 m
Radar Cross Section
Small (<0.1 m²)

Expand to show TLE details & history
Last TLE update: 12 hours ago

TLE from 12 hours ago
0 SL-16 DEB
1 20626U 90046C   25300.45741757  .00000128  00000-0  15823-3 0  9998
2 20626  71.0149 301.8274 0203781 114.9116  35.2556 13.72904182774156
Epoch: 2025-10-27T10:58Z
TLE epoch observation values (Epoch: 2025-10-27T10:58:40.878Z)
Latitude
26.82777°
Longitude
-88.86857°
Altitude
870.316 km
Speed
7.481 km/s
True Right ascension
07h 27m 26s
True Declination
26° 41' 30"
Sunlit
Object was in daylight at epoch
Visualization orbit readout
Latitude
Unknown
Longitude
Unknown
Altitude
Unknown
Speed
Unknown
Apparent Right ascension
Unknown
Apparent Declination
Unknown
Sunlit
N/A
Visualization observer readout
Local Sidereal Time
18:18:43
Azimuth
Unknown
Elevation
Unknown
Doppler factor
Unknown
Orbital elements
Apogee altitude
1,137.217 km
Perigee altitude
837.037 km
Semi-major axis
7,365.264 km
Eccentricity
0.02038
Inclination
71.0149°
RAAN
301.8274°
Arg. of periapsis
114.9116°
True anomaly
36.63199°
Mean anomaly
35.2556°
Eccentric anomaly
35.94091°
Mean motion
3.43369 °/min
Orbital period
104.84 mins
BSTAR
0.00015823
Loading maneuver chart data...
Computing Atmospheric mass density...
Loading historical data...
Loading historical data...
Loading historical data...
Loading historical data...
Loading historical data...
Loading historical data...
Loading historical data...
Other satellites on launch #46 in the year 1990 (1990-05-22 UTC)

Documentation

Showing up to 5 results
|